START_TIME,STEP,MOV.,M29,t_acc.,H22,t_acc.,H26,t_acc.,H30,t_acc.
1979-07-01 09:00:32.870 ,0,0,0.,24.0,0.,24.0,0.,24.0,0.,24.0
1979-07-01 09:00:56.870 ,0,1,0.,24.0,0.,24.0,0.,24.0,0.,24.0
1979-07-01 09:01:20.870 ,0,0,0.,24.0,0.,24.0,0.,24.0,0.,24.0
1979-07-01 09:01:44.870 ,1,1,0.,24.0,0.,24.0,0.,24.0,0.,24.0
1979-07-01 09:02:08.870 ,1,0,0.,24.0,0.,24.0,0.,24.0,0.,24.0
1979-07-01 09:02:32.870 ,2,1,0.,24.0,0.,24.0,0.,24.0,0.,24.0
1979-07-01 09:02:56.870 ,2,0,1.,24.0,0.,24.0,0.,24.0,0.,24.0
1979-07-01 09:03:20.870 ,3,1,0.,24.0,0.,24.0,0.,24.0,0.,24.0
1979-07-01 09:03:44.870 ,3,0,0.,24.0,0.,24.0,0.,24.0,0.,24.0
1979-07-01 09:04:08.870 ,4,1,0.,24.0,0.,24.0,0.,24.0,0.,24.0
1979-07-01 09:04:32.870 ,0,0,0.,24.0,0.,24.0,0.,24.0,0.,24.0
1979-07-01 09:04:56.870 ,5,1,0.,24.0,0.,24.0,0.,24.0,0.,24.0
1979-07-01 09:05:20.870 ,5,0,0.,24.0,0.,24.0,0.,24.0,0.,24.0
1979-07-01 09:05:44.870 ,6,1,0.,24.0,0.,24.0,0.,24.0,0.,24.0
1979-07-01 09:06:08.870 ,6,0,0.,24.0,0.,24.0,0.,24.0,0.,24.0
1979-07-01 09:06:32.870 ,7,0,0.,24.0,0.,24.0,0.,24.0,0.,24.0
1979-07-01 09:06:56.870 ,7,0,0.,24.0,0.,24.0,0.,24.0,0.,24.0
1979-07-01 09:07:20.870 ,5,1,0.,24.0,0.,24.0,0.,24.0,0.,24.0
1979-07-01 09:07:44.870 ,1,1,0.,24.0,0.,24.0,0.,24.0,0.,24.0
1979-07-01 09:08:08.870 ,2,1,0.,24.0,0.,24.0,0.,24.0,0.,24.0
1979-07-01 09:08:32.870 ,6,1,0.,24.0,0.,24.0,0.,24.0,0.,24.0
1979-07-01 09:09:44.870 ,0,0,0.,24.0,0.,24.0,0.,24.0,0.,24.0
1979-07-01 09:10:08.870 ,6,1,0.,24.0,0.,24.0,0.,24.0,0.,24.0
1979-07-01 09:10:32.870 ,5,1,0.,24.0,0.,24.0,0.,24.0,0.,24.0
1979-07-01 09:10:56.870 ,1,1,0.,24.0,0.,24.0,0.,24.0,0.,24.0
1979-07-01 09:11:20.870 ,2,1,0.,24.0,0.,24.0,0.,24.0,0.,24.0
1979-07-01 09:11:44.870 ,6,1,0.,24.0,0.,24.0,0.,24.0,0.,24.0
1979-07-01 09:12:08.870 ,5,1,0.,24.0,0.,24.0,0.,24.0,0.,24.0
1979-07-01 09:12:32.870 ,1,1,1.,24.0,0.,24.0,0.,24.0,0.,24.0
1979-07-01 09:12:56.870 ,2,1,0.,24.0,0.,24.0,0.,24.0,0.,24.0
1979-07-01 09:13:20.870 ,6,1,0.,24.0,0.,24.0,0.,24.0,0.,24.0
1979-07-01 09:13:44.870 ,5,1,0.,24.0,0.,24.0,0.,24.0,0.,24.0
1979-07-01 09:14:08.870 ,1,1,0.,24.0,0.,24.0,0.,24.0,0.,24.0
1979-07-01 09:14:32.870 ,2,1,0.,24.0,0.,24.0,0.,24.0,0.,24.0
1979-07-01 09:14:56.870 ,6,1,0.,24.0,0.,24.0,0.,24.0,0.,24.0
1979-07-01 09:15:20.870 ,5,1,0.,24.0,0.,24.0,0.,24.0,0.,24.0
1979-07-01 09:15:44.870 ,1,1,0.,24.0,0.,24.0,0.,24.0,0.,24.0
1979-07-01 09:16:08.870 ,2,1,0.,24.0,0.,24.0,0.,24.0,0.,24.0
1979-07-01 09:16:32.870 ,6,1,0.,24.0,0.,24.0,0.,24.0,0.,24.0
1979-07-01 09:16:56.870 ,5,1,0.,24.0,0.,24.0,0.,24.0,0.,24.0
1979-07-01 09:17:20.870 ,1,1,0.,24.0,0.,24.0,0.,24.0,0.,24.0
1979-07-01 09:17:44.870 ,0,0,0.,24.0,0.,24.0,0.,24.0,0.,24.0
1979-07-01 09:18:08.870 ,0,0,0.,24.0,0.,24.0,0.,24.0,0.,24.0
1979-07-01 09:18:32.870 ,5,1,0.,24.0,0.,24.0,0.,24.0,0.,24.0
1979-07-01 09:18:56.870 ,5,0,0.,24.0,0.,24.0,0.,24.0,0.,24.0
1979-07-01 09:19:20.870 ,4,1,0.,24.0,0.,24.0,0.,24.0,0.,24.0
1979-07-01 09:19:44.870 ,4,0,0.,24.0,0.,24.0,0.,24.0,0.,24.0
1979-07-01 09:20:08.870 ,3,1,1.,24.0,0.,24.0,0.,24.0,0.,24.0
1979-07-01 09:20:32.870 ,3,0,0.,24.0,0.,24.0,0.,24.0,0.,24.0
1979-07-01 09:20:56.870 ,2,1,0.,24.0,0.,24.0,0.,24.0,0.,24.0
1979-07-01 09:21:20.870 ,2,0,0.,24.0,0.,24.0,0.,24.0,0.,24.0
1979-07-01 09:21:44.870 ,1,1,0.,24.0,0.,24.0,0.,24.0,0.,24.0
1979-07-01 09:22:08.870 ,1,0,0.,24.0,0.,24.0,0.,24.0,0.,24.0
1979-07-01 09:22:32.870 ,0,1,0.,24.0,0.,24.0,0.,24.0,0.,24.0
1979-07-01 09:22:56.870 ,0,0,0.,24.0,0.,24.0,0.,24.0,0.,24.0
1979-07-01 09:23:20.870 ,0,1,1.,24.0,0.,24.0,0.,24.0,0.,24.0
1979-07-01 09:23:44.870 ,0,0,0.,24.0,0.,24.0,0.,24.0,0.,24.0
1979-07-01 09:24:08.870 ,1,1,0.,24.0,0.,24.0,0.,24.0,0.,24.0
1979-07-01 09:24:32.870 ,1,0,0.,24.0,0.,24.0,0.,24.0,0.,24.0
1979-07-01 09:24:56.870 ,2,1,0.,24.0,0.,24.0,0.,24.0,0.,24.0
1979-07-01 09:25:20.870 ,2,0,0.,24.0,0.,24.0,0.,24.0,0.,24.0
1979-07-01 09:25:44.870 ,3,1,0.,24.0,0.,24.0,0.,24.0,0.,24.0
1979-07-01 09:26:08.870 ,3,0,0.,24.0,0.,24.0,0.,24.0,0.,24.0
1979-07-01 09:26:32.870 ,4,1,0.,24.0,0.,24.0,0.,24.0,0.,24.0
1979-07-01 09:26:56.870 ,4,0,0.,24.0,0.,24.0,0.,24.0,0.,24.0
1979-07-01 09:27:20.870 ,5,1,0.,24.0,0.,24.0,0.,24.0,0.,24.0
1979-07-01 09:27:44.870 ,5,0,0.,24.0,0.,24.0,0.,24.0,0.,24.0
1979-07-01 09:28:08.870 ,6,1,0.,24.0,0.,24.0,0.,24.0,0.,24.0
1979-07-01 09:28:32.870 ,6,0,0.,24.0,0.,24.0,0.,24.0,0.,24.0
1979-07-01 09:28:56.870 ,7,1,0.,24.0,0.,24.0,0.,24.0,0.,24.0
1979-07-01 09:29:20.870 ,7,0,0.,24.0,0.,24.0,0.,24.0,0.,24.0
1979-07-01 09:29:44.870 ,7,1,0.,24.0,0.,24.0,0.,24.0,0.,24.0
1979-07-01 09:30:08.870 ,7,0,0.,24.0,0.,24.0,0.,24.0,0.,24.0
1979-07-01 09:30:32.870 ,6,1,0.,24.0,0.,24.0,0.,24.0,0.,24.0
1979-07-01 09:30:56.870 ,6,0,0.,24.0,0.,24.0,0.,24.0,0.,24.0
1979-07-01 09:31:20.870 ,5,1,0.,24.0,0.,24.0,0.,24.0,0.,24.0
1979-07-01 09:31:44.870 ,5,0,0.,24.0,0.,24.0,0.,24.0,0.,24.0
1979-07-01 09:32:08.870 ,4,1,0.,24.0,0.,24.0,0.,24.0,0.,24.0
1979-07-01 09:32:32.870 ,4,0,0.,24.0,0.,24.0,0.,24.0,0.,24.0
1979-07-01 09:32:56.870 ,3,1,0.,24.0,0.,24.0,0.,24.0,0.,24.0
1979-07-01 09:33:20.870 ,3,0,0.,24.0,0.,24.0,0.,24.0,0.,24.0
1979-07-01 09:33:44.870 ,2,1,0.,24.0,0.,24.0,0.,24.0,0.,24.0
1979-07-01 09:34:08.870 ,2,0,0.,24.0,0.,24.0,0.,24.0,0.,24.0
1979-07-01 09:34:32.870 ,1,1,0.,24.0,0.,24.0,0.,24.0,0.,24.0
1979-07-01 09:34:56.870 ,1,0,0.,24.0,0.,24.0,0.,24.0,0.,24.0
1979-07-01 09:35:20.870 ,0,1,0.,24.0,0.,24.0,0.,24.0,0.,24.0
1979-07-01 09:35:44.870 ,0,0,0.,24.0,0.,24.0,0.,24.0,0.,24.0
1979-07-01 09:36:08.870 ,0,1,0.,24.0,0.,24.0,0.,24.0,0.,24.0
1979-07-01 09:36:32.870 ,0,0,0.,24.0,0.,24.0,0.,24.0,0.,24.0
1979-07-01 09:36:56.870 ,1,1,0.,24.0,0.,24.0,0.,24.0,0.,24.0
1979-07-01 09:37:20.870 ,1,0,0.,24.0,0.,24.0,0.,24.0,0.,24.0
1979-07-01 09:37:44.870 ,2,1,0.,24.0,0.,24.0,0.,24.0,0.,24.0
1979-07-01 09:38:08.870 ,2,0,0.,24.0,0.,24.0,0.,24.0,0.,24.0
1979-07-01 09:38:32.870 ,3,1,0.,24.0,0.,24.0,0.,24.0,0.,24.0
1979-07-01 09:38:56.870 ,3,0,0.,24.0,0.,24.0,0.,24.0,0.,24.0
1979-07-01 09:39:20.870 ,4,1,0.,24.0,0.,24.0,0.,24.0,0.,24.0
1979-07-01 09:39:44.870 ,4,0,0.,24.0,0.,24.0,0.,24.0,0.,24.0
1979-07-01 09:40:08.870 ,5,1,0.,24.0,0.,24.0,0.,24.0,0.,24.0
1979-07-01 09:40:32.870 ,5,0,0.,24.0,0.,24.0,0.,24.0,0.,24.0
1979-07-01 09:40:56.870 ,6,1,0.,24.0,0.,24.0,0.,24.0,0.,24.0
1979-07-01 09:41:20.870 ,6,0,0.,24.0,0.,24.0,0.,24.0,0.,24.0
1979-07-01 09:41:44.870 ,7,1,0.,24.0,0.,24.0,0.,24.0,0.,24.0
1979-07-01 09:42:08.870 ,7,0,0.,24.0,0.,24.0,0.,24.0,0.,24.0
1979-07-01 09:42:32.870 ,7,1,0.,24.0,0.,24.0,0.,24.0,0.,24.0
1979-07-01 09:42:56.870 ,7,0,0.,24.0,0.,24.0,0.,24.0,0.,24.0
1979-07-01 09:43:20.870 ,6,1,0.,24.0,0.,24.0,0.,24.0,0.,24.0
1979-07-01 09:43:44.870 ,6,0,0.,24.0,0.,24.0,0.,24.0,0.,24.0
1979-07-01 09:44:08.870 ,5,1,0.,24.0,0.,24.0,0.,24.0,0.,24.0
1979-07-01 09:44:32.870 ,5,0,0.,24.0,0.,24.0,0.,24.0,0.,24.0
1979-07-01 09:44:56.870 ,4,1,0.,24.0,0.,24.0,0.,24.0,0.,24.0
1979-07-01 09:45:20.870 ,4,0,0.,24.0,0.,24.0,0.,24.0,0.,24.0
1979-07-01 09:45:44.870 ,3,1,0.,24.0,0.,24.0,0.,24.0,0.,24.0
1979-07-01 09:46:08.870 ,3,0,0.,24.0,0.,24.0,0.,24.0,0.,24.0
1979-07-01 09:46:32.870 ,2,1,0.,24.0,0.,24.0,0.,24.0,0.,24.0
1979-07-01 09:46:56.870 ,2,0,0.,24.0,0.,24.0,0.,24.0,0.,24.0
1979-07-01 09:47:20.870 ,1,1,0.,24.0,0.,24.0,0.,24.0,0.,24.0
1979-07-01 09:47:44.870 ,1,0,0.,24.0,0.,24.0,0.,24.0,0.,24.0
1979-07-01 09:48:08.870 ,0,1,0.,24.0,0.,24.0,0.,24.0,0.,24.0
1979-07-01 09:48:32.870 ,0,0,0.,24.0,0.,24.0,0.,24.0,0.,24.0
1979-07-01 09:48:56.870 ,0,1,0.,24.0,0.,24.0,0.,24.0,0.,24.0
1979-07-01 09:49:20.870 ,0,0,0.,24.0,0.,24.0,0.,24.0,0.,24.0
1979-07-01 09:49:44.870 ,1,1,0.,24.0,0.,24.0,0.,24.0,0.,24.0
1979-07-01 09:50:08.870 ,1,0,0.,24.0,0.,24.0,0.,24.0,0.,24.0
1979-07-01 09:50:32.870 ,2,1,0.,24.0,0.,24.0,0.,24.0,0.,24.0
1979-07-01 09:50:56.870 ,2,0,0.,24.0,0.,24.0,0.,24.0,0.,24.0
1979-07-01 09:51:20.870 ,3,1,0.,24.0,0.,24.0,0.,24.0,0.,24.0
1979-07-01 09:51:44.870 ,3,0,0.,24.0,0.,24.0,0.,24.0,0.,24.0
1979-07-01 09:52:08.870 ,4,1,0.,24.0,0.,24.0,0.,24.0,0.,24.0
1979-07-01 09:52:32.870 ,4,0,0.,24.0,0.,24.0,0.,24.0,0.,24.0
1979-07-01 09:52:56.870 ,5,1,0.,24.0,0.,24.0,0.,24.0,0.,24.0
1979-07-01 09:53:20.870 ,5,0,0.,24.0,0.,24.0,0.,24.0,0.,24.0
1979-07-01 09:53:44.870 ,6,1,0.,24.0,0.,24.0,0.,24.0,0.,24.0
1979-07-01 09:54:08.870 ,6,0,0.,24.0,0.,24.0,0.,24.0,0.,24.0
1979-07-01 09:54:32.870 ,7,0,0.,24.0,0.,24.0,0.,24.0,0.,24.0
1979-07-01 09:54:56.870 ,7,0,0.,24.0,0.,24.0,0.,24.0,0.,24.0
1979-07-01 09:55:20.870 ,0,0,0.,24.0,0.,24.0,0.,24.0,0.,24.0
1979-07-01 09:55:44.870 ,1,1,0.,24.0,0.,24.0,0.,24.0,0.,24.0
1979-07-01 09:56:08.870 ,2,1,0.,24.0,0.,24.0,0.,24.0,0.,24.0
1979-07-01 09:56:32.870 ,6,1,0.,24.0,0.,24.0,0.,24.0,0.,24.0
1979-07-01 09:56:56.870 ,5,1,0.,24.0,0.,24.0,0.,24.0,0.,24.0
1979-07-01 09:57:20.870 ,1,1,0.,24.0,0.,24.0,0.,24.0,0.,24.0
1979-07-01 09:57:44.870 ,2,1,0.,24.0,0.,24.0,0.,24.0,0.,24.0
1979-07-01 09:58:08.870 ,6,1,0.,24.0,0.,24.0,0.,24.0,0.,24.0
1979-07-01 09:58:32.870 ,5,1,0.,24.0,0.,24.0,0.,24.0,0.,24.0
1979-07-01 09:58:56.870 ,1,1,0.,24.0,0.,24.0,0.,24.0,0.,24.0
1979-07-01 09:59:20.870 ,2,1,0.,24.0,0.,24.0,0.,24.0,0.,24.0
1979-07-01 09:59:44.870 ,6,1,0.,24.0,0.,24.0,0.,24.0,0.,24.0
1979-07-01 10:00:08.870 ,5,1,0.,24.0,0.,24.0,0.,24.0,0.,24.0
1979-07-01 10:00:32.870 ,1,1,0.,24.0,0.,24.0,0.,24.0,0.,24.0
1979-07-01 10:00:56.870 ,2,1,0.,24.0,0.,24.0,0.,24.0,0.,24.0
1979-07-01 10:01:20.870 ,6,1,0.,24.0,0.,24.0,0.,24.0,0.,24.0
1979-07-01 10:01:44.870 ,5,1,0.,24.0,0.,24.0,0.,24.0,0.,24.0
1979-07-01 10:02:08.870 ,1,1,0.,24.0,0.,24.0,0.,24.0,0.,24.0
1979-07-01 10:02:32.870 ,2,1,0.,24.0,0.,24.0,0.,24.0,0.,24.0
1979-07-01 10:02:56.870 ,6,1,1.,24.0,0.,24.0,0.,24.0,0.,24.0
1979-07-01 10:03:20.870 ,5,1,0.,24.0,0.,24.0,0.,24.0,0.,24.0
1979-07-01 10:03:44.870 ,1,1,0.,24.0,0.,24.0,0.,24.0,0.,24.0
1979-07-01 10:04:08.870 ,2,1,0.,24.0,0.,24.0,0.,24.0,0.,24.0
1979-07-01 10:04:32.870 ,6,1,0.,24.0,0.,24.0,0.,24.0,0.,24.0
1979-07-01 10:04:56.870 ,5,1,0.,24.0,0.,24.0,0.,24.0,0.,24.0
1979-07-01 10:05:20.870 ,1,1,0.,24.0,0.,24.0,0.,24.0,0.,24.0
1979-07-01 10:05:44.870 ,0,0,0.,24.0,0.,24.0,0.,24.0,0.,24.0
1979-07-01 10:06:08.870 ,0,0,0.,24.0,0.,24.0,0.,24.0,0.,24.0
1979-07-01 10:06:32.870 ,5,1,0.,24.0,0.,24.0,0.,24.0,0.,24.0
1979-07-01 10:06:56.870 ,5,0,0.,24.0,0.,24.0,0.,24.0,0.,24.0
1979-07-01 10:07:20.870 ,4,1,0.,24.0,0.,24.0,0.,24.0,0.,24.0
1979-07-01 10:07:44.870 ,4,0,0.,24.0,0.,24.0,0.,24.0,0.,24.0
1979-07-01 10:08:08.870 ,3,1,0.,24.0,0.,24.0,0.,24.0,0.,24.0
1979-07-01 10:08:32.870 ,3,0,1.,24.0,0.,24.0,0.,24.0,0.,24.0
1979-07-01 10:08:56.870 ,2,1,0.,24.0,0.,24.0,0.,24.0,0.,24.0
1979-07-01 10:09:20.870 ,2,0,0.,24.0,0.,24.0,0.,24.0,0.,24.0
1979-07-01 10:09:44.870 ,1,1,0.,24.0,0.,24.0,0.,24.0,0.,24.0
1979-07-01 10:10:08.870 ,1,0,0.,24.0,0.,24.0,0.,24.0,0.,24.0
1979-07-01 10:10:32.870 ,0,1,0.,24.0,0.,24.0,0.,24.0,0.,24.0
1979-07-01 10:10:56.870 ,0,0,0.,24.0,0.,24.0,0.,24.0,0.,24.0
1979-07-01 10:11:20.870 ,0,1,0.,24.0,0.,24.0,0.,24.0,0.,24.0
1979-07-01 10:11:44.870 ,0,0,0.,24.0,0.,24.0,0.,24.0,0.,24.0
1979-07-01 10:12:08.870 ,1,1,0.,24.0,0.,24.0,0.,24.0,0.,24.0
1979-07-01 10:12:32.870 ,1,0,0.,24.0,0.,24.0,0.,24.0,0.,24.0
1979-07-01 10:12:56.870 ,2,1,0.,24.0,0.,24.0,0.,24.0,0.,24.0
1979-07-01 10:13:20.870 ,2,0,0.,24.0,0.,24.0,0.,24.0,0.,24.0
1979-07-01 10:13:44.870 ,3,1,0.,24.0,0.,24.0,0.,24.0,0.,24.0
1979-07-01 10:14:08.870 ,3,0,0.,24.0,0.,24.0,0.,24.0,0.,24.0
1979-07-01 10:14:32.870 ,4,1,0.,24.0,0.,24.0,0.,24.0,0.,24.0
1979-07-01 10:14:56.870 ,4,0,0.,24.0,0.,24.0,0.,24.0,0.,24.0
1979-07-01 10:15:20.870 ,5,1,0.,24.0,0.,24.0,0.,24.0,0.,24.0
1979-07-01 10:15:44.870 ,5,0,0.,24.0,0.,24.0,0.,24.0,0.,24.0
1979-07-01 10:16:08.870 ,6,1,0.,24.0,0.,24.0,0.,24.0,0.,24.0
1979-07-01 10:16:32.870 ,6,0,0.,24.0,0.,24.0,0.,24.0,0.,24.0
1979-07-01 10:16:56.870 ,7,1,0.,24.0,0.,24.0,0.,24.0,0.,24.0
1979-07-01 10:17:20.870 ,7,0,0.,24.0,0.,24.0,0.,24.0,0.,24.0
1979-07-01 10:17:44.870 ,7,1,1.,24.0,0.,24.0,0.,24.0,0.,24.0
1979-07-01 10:18:08.870 ,7,0,0.,24.0,0.,24.0,0.,24.0,0.,24.0
1979-07-01 10:18:32.870 ,6,1,0.,24.0,0.,24.0,0.,24.0,0.,24.0
1979-07-01 10:18:56.870 ,6,0,0.,24.0,0.,24.0,0.,24.0,0.,24.0
1979-07-01 10:19:20.870 ,5,1,0.,24.0,0.,24.0,0.,24.0,0.,24.0
1979-07-01 10:19:44.870 ,5,0,0.,24.0,0.,24.0,0.,24.0,0.,24.0
1979-07-01 10:20:08.870 ,4,1,0.,24.0,0.,24.0,0.,24.0,0.,24.0
1979-07-01 10:20:32.870 ,4,0,0.,24.0,0.,24.0,0.,24.0,0.,24.0
1979-07-01 10:20:56.870 ,3,1,1.,24.0,0.,24.0,0.,24.0,0.,24.0
1979-07-01 10:21:20.870 ,3,0,0.,24.0,0.,24.0,0.,24.0,0.,24.0
1979-07-01 10:21:44.870 ,2,1,0.,24.0,0.,24.0,0.,24.0,0.,24.0
1979-07-01 10:22:08.870 ,2,0,0.,24.0,0.,24.0,0.,24.0,0.,24.0
1979-07-01 10:22:32.870 ,1,1,0.,24.0,0.,24.0,0.,24.0,0.,24.0
1979-07-01 10:22:56.870 ,1,0,0.,24.0,0.,24.0,0.,24.0,0.,24.0
1979-07-01 10:23:20.870 ,0,1,0.,24.0,0.,24.0,0.,24.0,0.,24.0
1979-07-01 10:23:44.870 ,0,0,0.,24.0,0.,24.0,0.,24.0,0.,24.0
1979-07-01 10:24:08.870 ,0,1,0.,24.0,0.,24.0,0.,24.0,0.,24.0
1979-07-01 10:24:32.870 ,0,0,0.,24.0,0.,24.0,0.,24.0,0.,24.0
1979-07-01 10:24:56.870 ,1,1,0.,24.0,0.,24.0,0.,24.0,0.,24.0
1979-07-01 10:25:20.870 ,1,0,0.,24.0,0.,24.0,0.,24.0,0.,24.0
1979-07-01 10:25:44.870 ,2,1,0.,24.0,0.,24.0,0.,24.0,0.,24.0
1979-07-01 10:26:08.870 ,2,0,0.,24.0,0.,24.0,0.,24.0,0.,24.0
1979-07-01 10:26:32.870 ,3,1,0.,24.0,0.,24.0,0.,24.0,0.,24.0
1979-07-01 10:26:56.870 ,3,0,0.,24.0,0.,24.0,0.,24.0,0.,24.0
1979-07-01 10:27:20.870 ,4,1,0.,24.0,0.,24.0,0.,24.0,0.,24.0
1979-07-01 10:27:44.870 ,4,0,0.,24.0,0.,24.0,0.,24.0,0.,24.0
1979-07-01 10:28:08.870 ,5,1,0.,24.0,0.,24.0,0.,24.0,0.,24.0
1979-07-01 10:28:32.870 ,5,0,0.,24.0,0.,24.0,0.,24.0,0.,24.0
1979-07-01 10:28:56.870 ,6,1,0.,24.0,0.,24.0,0.,24.0,0.,24.0
1979-07-01 10:29:20.870 ,6,0,0.,24.0,0.,24.0,0.,24.0,0.,24.0
1979-07-01 10:29:44.870 ,7,1,0.,24.0,0.,24.0,0.,24.0,0.,24.0
1979-07-01 10:30:08.870 ,0,0,0.,24.0,0.,24.0,0.,24.0,0.,24.0
1979-07-01 10:30:41.870 ,0,0,,0,,0,,0,,0
1979-07-01 10:30:56.870 ,0,0,,0,,0,,0,,0
1979-07-01 10:32:09.470 ,0,0,0.,24.0,0.,24.0,0.,24.0,0.,24.0
1979-07-01 10:32:32.870 ,0,0,0.,24.0,0.,24.0,0.,24.0,0.,24.0
1979-07-01 10:32:56.870 ,0,0,0.,24.0,0.,24.0,0.,24.0,0.,24.0
1979-07-01 10:33:20.870 ,0,0,0.,24.0,0.,24.0,0.,24.0,0.,24.0
1979-07-01 10:33:44.870 ,0,0,0.,24.0,0.,24.0,0.,24.0,0.,24.0
1979-07-01 10:34:08.870 ,0,0,,0,,0,,0,,0
1979-07-01 10:34:32.870 ,0,0,0.,24.0,0.,24.0,0.,24.0,0.,24.0
1979-07-01 10:34:56.870 ,0,0,0.,24.0,0.,24.0,0.,24.0,0.,24.0
1979-07-01 10:35:20.870 ,1,1,0.,24.0,0.,24.0,0.,24.0,0.,24.0
1979-07-01 10:35:44.870 ,1,0,0.,24.0,0.,24.0,0.,24.0,0.,24.0
1979-07-01 10:36:08.870 ,0,1,0.,24.0,0.,24.0,0.,24.0,0.,24.0
1979-07-01 10:36:32.870 ,0,0,0.,24.0,0.,24.0,0.,24.0,0.,24.0
1979-07-01 10:36:56.870 ,0,0,,0,,0,,0,,0
1979-07-01 10:37:20.870 ,0,0,,0,,0,,0,,0
1979-07-01 10:37:48.470 ,0,0,,0,,0,,0,,0
1979-07-01 10:38:08.870 ,0,0,,0,,0,,0,,0
1979-07-01 10:40:16.670 ,0,0,,0,,0,,0,,0
1979-07-01 10:40:32.870 ,0,0,,0,,0,,0,,0
1979-07-01 10:40:58.070 ,0,0,,0,,0,,0,,0
1979-07-01 10:41:20.870 ,0,0,,0,,0,,0,,0
1979-07-01 10:41:44.870 ,6,1,0.,24.0,0.,24.0,0.,24.0,0.,24.0
1979-07-01 10:42:08.870 ,6,0,0.,24.0,0.,24.0,0.,24.0,0.,24.0
1979-07-01 10:42:32.870 ,7,0,32.,24.0,2621440.,24.0,0.,24.0,0.,24.0
1979-07-01 10:42:56.870 ,0,0,0.,24.0,0.,24.0,0.,24.0,0.,24.0
1979-07-01 10:43:20.870 ,0,0,0.,24.0,0.,24.0,0.,24.0,0.,24.0
1979-07-01 10:43:44.870 ,0,0,,0,,0,,0,,0
1979-07-01 10:43:44.870 ,0,0,,0,,0,,0,,0
1979-07-01 10:44:02.270 ,0,0,,0,,0,,0,,0
1979-07-01 10:44:08.870 ,0,0,1.,24.0,0.,24.0,0.,24.0,0.,24.0
1979-07-01 10:44:32.870 ,0,0,,0,,0,,0,,0
1979-07-01 10:44:56.870 ,0,0,,0,,0,,0,,0
1979-07-01 10:45:20.870 ,0,0,0.,24.0,0.,24.0,0.,24.0,0.,24.0
1979-07-01 10:45:44.870 ,2,1,0.,24.0,0.,24.0,0.,24.0,0.,24.0
1979-07-01 10:46:08.870 ,6,1,0.,24.0,0.,24.0,0.,24.0,0.,24.0
1979-07-01 10:46:32.870 ,5,1,0.,24.0,0.,24.0,0.,24.0,0.,24.0
1979-07-01 10:46:56.870 ,1,1,0.,24.0,0.,24.0,0.,24.0,0.,24.0
1979-07-01 10:47:20.870 ,2,1,0.,24.0,0.,24.0,0.,24.0,0.,24.0
1979-07-01 10:47:44.870 ,6,1,0.,24.0,0.,24.0,0.,24.0,0.,24.0
1979-07-01 10:48:08.870 ,5,1,0.,24.0,0.,24.0,0.,24.0,0.,24.0
1979-07-01 10:48:32.870 ,1,1,0.,24.0,0.,24.0,0.,24.0,0.,24.0
1979-07-01 10:48:56.870 ,4,1,,0,,0,,0,,0
1979-07-01 10:49:20.870 ,6,1,0.,24.0,0.,24.0,0.,24.0,0.,24.0
1979-07-01 10:49:44.870 ,5,1,0.,24.0,0.,24.0,0.,24.0,0.,24.0
1979-07-01 10:50:08.870 ,1,1,0.,24.0,0.,24.0,0.,24.0,0.,24.0
1979-07-01 10:50:32.870 ,2,1,0.,24.0,0.,24.0,0.,24.0,0.,24.0
1979-07-01 10:50:56.870 ,0,0,,0,,0,,0,,0
1979-07-01 10:51:20.870 ,0,0,0.,24.0,0.,24.0,0.,24.0,0.,24.0
1979-07-01 10:51:44.870 ,1,1,0.,24.0,0.,24.0,0.,24.0,0.,24.0
1979-07-01 10:52:08.870 ,2,1,,0,,0,,0,,0
1979-07-01 10:52:32.870 ,0,0,0.,24.0,0.,24.0,0.,24.0,0.,24.0
1979-07-01 10:52:56.870 ,0,0,0.,24.0,0.,24.0,0.,24.0,0.,24.0
1979-07-01 10:53:20.870 ,1,1,0.,24.0,0.,24.0,0.,24.0,0.,24.0
1979-07-01 10:53:44.870 ,0,0,,0,,0,,0,,0
1979-07-01 10:54:08.870 ,0,0,,0,,0,,0,,0
1979-07-01 10:55:13.070 ,0,0,,0,,0,,0,,0
1979-07-01 10:55:22.070 ,0,0,,0,,0,,0,,0
1979-07-01 10:55:44.870 ,0,0,0.,24.0,0.,24.0,0.,24.0,0.,24.0
1979-07-01 10:56:08.870 ,3,1,0.,24.0,0.,24.0,0.,24.0,0.,24.0
1979-07-01 10:56:32.870 ,3,0,0.,24.0,0.,24.0,0.,24.0,0.,24.0
1979-07-01 10:56:56.870 ,2,1,0.,24.0,0.,24.0,0.,24.0,0.,24.0
1979-07-01 10:57:20.870 ,2,0,0.,24.0,0.,24.0,0.,24.0,0.,24.0
1979-07-01 10:57:44.870 ,1,1,0.,24.0,0.,24.0,0.,24.0,0.,24.0
1979-07-01 10:58:08.870 ,1,0,0.,24.0,0.,24.0,0.,24.0,0.,24.0
1979-07-01 10:58:32.870 ,0,0,,0,,0,,0,,0
1979-07-01 10:58:56.870 ,0,0,0.,24.0,2097152.,24.0,0.,24.0,0.,24.0
1979-07-01 10:59:21.470 ,0,0,,0,,0,,0,,0
1979-07-01 10:59:44.870 ,0,0,,0,,0,,0,,0
1979-07-01 11:00:30.470 ,0,0,,0,,0,,0,,0
1979-07-01 11:00:32.870 ,0,0,,0,,0,,0,,0
1979-07-01 11:46:59.260 ,0,0,0.,24.0,0.,24.0,0.,24.0,12288.,24.0
1979-07-01 11:47:20.860 ,0,0,,0,,0,,0,,0
1979-07-01 11:47:44.860 ,0,0,0.,24.0,0.,24.0,0.,24.0,0.,24.0
1979-07-01 11:48:08.860 ,1,1,0.,24.0,0.,24.0,0.,24.0,0.,24.0
1979-07-01 11:48:32.860 ,1,0,1.,24.0,0.,24.0,0.,24.0,0.,24.0
1979-07-01 11:48:56.860 ,0,0,0.,24.0,0.,24.0,0.,24.0,0.,24.0
1979-07-01 11:49:20.860 ,0,0,,0,,0,,0,,0
1979-07-01 11:49:44.860 ,0,0,,0,,0,,0,,0
1979-07-01 11:50:08.860 ,0,0,,0,,0,,0,,0
1979-07-01 11:50:33.460 ,4,0,,0,,0,,0,,0
1979-07-01 11:50:56.860 ,4,0,0.,24.0,0.,24.0,0.,24.0,2293760.,24.0
1979-07-01 11:51:20.860 ,0,0,0.,24.0,0.,24.0,0.,24.0,0.,24.0
1979-07-01 11:51:44.860 ,0,0,,0,,0,,0,,0
1979-07-01 11:52:08.860 ,0,0,0.,24.0,0.,24.0,0.,24.0,0.,24.0
1979-07-01 11:52:32.860 ,0,0,0.,24.0,0.,24.0,0.,24.0,0.,24.0
1979-07-01 11:52:56.860 ,7,1,0.,24.0,0.,24.0,0.,24.0,0.,24.0
1979-07-01 11:53:20.860 ,7,0,,0,,0,,0,,0
1979-07-01 11:53:44.860 ,0,0,0.,24.0,0.,24.0,0.,24.0,0.,24.0
1979-07-01 11:54:08.860 ,0,0,,0,,0,,0,,0
1979-07-01 11:56:08.860 ,0,0,,0,,0,,0,,0
1979-07-01 11:56:32.860 ,0,0,0.,24.0,0.,24.0,0.,24.0,0.,24.0
1979-07-01 11:56:56.860 ,3,0,,0,,0,,0,,0
1979-07-01 11:57:20.860 ,0,0,,0,,0,,0,,0
1979-07-01 11:57:45.460 ,0,0,,0,,0,,0,,0
1979-07-01 11:58:08.860 ,0,0,,0,,0,,0,,0
1979-07-01 11:58:35.860 ,0,0,,0,,0,,0,,0
1979-07-01 11:58:56.860 ,0,0,,0,,0,,0,,0
